Location: *
(50.7870°S, 169.5906°W)
Time: 08:45:27
(UTC+00:00)

Daily predictions for brighter satellites

Satellite Brightness Start Highest point End
(mag) Time Altitude Azimuth Time Altitude Azimuth Time Altitude Azimuth
USA 308 3.5 12:03:17 19° E 12:03:17 19° E 12:04:24 10° E
ALOS 4.3 12:00:39 10° ENE 12:04:30 26° ESE 12:08:23 10° S
Cosmos 2208 Rocket 4.4 12:00:23 10° SSW 12:05:33 49° WNW 12:08:08 27° NNW
SJ 16-02 1.9 12:03:17 25° NW 12:05:37 52° WSW 12:09:59 10° SSE
Cosmos 1934 Rocket 4.1 12:01:01 10° S 12:07:31 84° E 12:12:05 20° NNE
SAR-Lupe-1 4.1 12:06:15 37° N 12:07:32 66° WNW 12:11:14 10° SSW
MSX 3.9 12:04:43 20° NNE 12:08:55 86° ESE 12:14:47 10° SSW
Genesis I 3.2 12:06:00 10° SW 12:09:44 72° SE 12:13:08 12° NE
Meteor 2-5 Rocket 4.1 12:05:26 10° SSW 12:11:06 53° W 12:14:11 26° NNW
Cosmos 1674 Rocket 3.8 12:08:12 10° SSW 12:12:39 57° W 12:14:39 30° NNW
Cosmos 1605 Rocket 4.4 12:06:51 10° S 12:12:58 60° ESE 12:18:26 13° NNE
Cosmos 1953 3.7 12:11:34 18° NE 12:13:49 32° E 12:17:24 10° SSE
Cosmos 1503 Rocket 4.5 12:12:02 24° N 12:14:53 51° ENE 12:19:58 10° SSE
Cosmos 2322 Rocket 3.8 12:10:45 10° SSW 12:15:56 35° SE 12:21:05 10° ENE
Spot 4 4.4 12:11:26 10° S 12:16:09 50° WSW 12:18:58 23° NW
Cosmos 1697 Rocket 3.7 12:11:19 10° SW 12:16:16 31° WNW 12:18:30 23° NW
ADEOS II 2.3 12:12:08 17° NNE 12:16:18 74° ESE 12:21:38 10° SSW
Cosmos 1908 4.3 12:20:56 24° WNW 12:22:32 34° WSW 12:26:03 10° S
Cosmos 1703 3.5 12:18:54 10° SSW 12:22:43 54° W 12:24:12 32° NNW
Cosmos 2333 Rocket 4.3 12:18:30 10° SSW 12:23:22 28° SE 12:28:13 10° E
Cosmos 1315 Rocket 3.3 12:19:23 10° S 12:23:24 58° ESE 12:26:17 18° NNE
Cosmos 1782 Rocket 4.2 12:24:59 21° NNE 12:27:48 51° E 12:32:14 10° SSE
ARGOS Delta rocket 4.2 12:23:34 10° S 12:28:04 50° WSW 12:30:32 24° NW
Resurs 1-4 Rocket 2.3 12:26:24 24° N 12:29:32 58° WNW 12:34:49 10° SSW
IDEFIX/ARIANE 42P 2.7 12:26:50 24° N 12:30:00 59° W 12:35:17 10° SSW
Cosmos 773 Rocket 4.0 12:27:37 10° SSW 12:32:58 68° WNW 12:36:50 19° N
ATLAS 3B R/B 2.5 12:29:15 10° SW 12:35:32 63° NW 12:41:44 10° NNE
Cosmos 1892 3.0 12:32:19 10° S 12:35:58 59° ESE 12:38:32 18° NNE
Cosmos 1535 Rocket 4.4 12:30:16 10° SSW 12:36:30 82° W 12:41:16 18° N
SL-16 R/B 2.7 12:32:45 10° SSW 12:38:29 64° ESE 12:44:09 10° NE
AQUA 3.8 12:38:35 19° N 12:42:03 79° WNW 12:46:55 10° SSW
CZ-2D R/B 2.6 12:39:10 22° NNW 12:42:31 49° W 12:47:55 10° SSW
Lacrosse 5 rocket 0.9 12:40:24 10° WSW 12:44:02 73° NW 12:47:45 10° NE
Cosmos 1825 2.6 12:40:58 10° S 12:44:33 55° ESE 12:47:25 15° NNE
Cosmos 1975 Rocket 3.2 12:40:34 10° S 12:44:59 74° ESE 12:48:34 15° NNE
Cosmos 1980 Rocket 2.9 12:40:26 10° SW 12:45:37 36° WNW 12:48:42 21° NNW
COSMOS 2406 3.3 12:41:45 22° NNW 12:45:39 85° WSW 12:51:31 10° SSE
ATLAS CENTAUR R/B 1.4 12:43:20 10° SW 12:47:52 77° NW 12:52:15 10° NE
Cosmos 2369 4.2 12:42:48 10° SW 12:48:07 40° WNW 12:51:33 20° NNW
Cosmos 1340 3.1 12:49:31 25° NW 12:51:14 45° WSW 12:54:45 10° S
Cosmos 1908 Rocket 4.0 12:52:20 22° NW 12:54:59 51° WSW 12:59:26 10° S
Cosmos 44 Rocket 3.5 12:53:58 22° NNW 12:56:52 56° NE 13:01:26 10° SE
USA 306 3.1 12:57:19 26° N 12:58:39 37° NE 13:02:04 10° ESE
Cosmos 1300 3.4 12:57:13 23° NW 12:59:08 40° WSW 13:02:42 10° S
Cosmos 1455 2.9 12:58:47 16° NNE 13:01:30 47° E 13:05:05 10° SSE
Cosmos 1408 3.9 13:01:02 10° SW 13:03:38 21° W 13:04:36 19° WNW
Cosmos 1833 Rocket 4.3 12:59:25 10° WNW 13:04:16 28° SW 13:09:10 10° SSE
FENGYUN 3A 3.7 13:02:08 13° N 13:06:57 69° WNW 13:12:25 10° SSW
Meteor 2-10 Rocket 4.2 13:03:32 18° NW 13:07:40 51° WSW 13:13:25 10° S
ATLAS 2AS CENTAUR R/B 3.3 13:02:22 10° WNW 13:08:57 54° SW 13:15:55 10° SE
Cosmos 1633 3.5 13:14:47 10° SW 13:17:20 24° W 13:18:24 20° WNW
DNEPR-1 R/B 4.2 13:14:28 17° N 13:17:35 43° ENE 13:21:31 10° SE
ISS -2.5 13:17:09 20° NNW 13:18:44 29° NNE 13:21:45 10° E
Cosmos 2278 4.0 13:18:45 10° SW 13:24:13 47° WNW 13:29:40 10° N
Helios 1A Rocket 4.1 13:23:13 10° S 13:26:44 29° WSW 13:29:33 14° WNW
Cosmos 1538 Rocket 4.1 13:22:12 10° SSW 13:27:41 77° WNW 13:33:04 10° NNE
Cosmos 2082 Rocket 3.0 13:22:45 12° WNW 13:27:44 45° SW 13:33:17 10° SSE
Cosmos 1300 Rocket 3.9 13:27:30 16° NNW 13:30:56 55° WSW 13:35:24 10° S
Cosmos 2098 Rocket 4.3 13:30:36 11° WNW 13:32:15 16° WSW 13:34:20 10° SSW
CZ-2C R/B 2.9 13:28:23 10° NNE 13:33:32 70° ESE 13:38:39 10° S
USA 229 DEB 3.5 13:26:43 10° SW 13:33:33 78° NW 13:39:45 10° NE
USA 229 3.5 13:26:47 10° SW 13:33:37 78° NW 13:39:50 10° NE
Cosmos 2237 4.4 13:28:10 10° SW 13:33:48 56° WNW 13:39:24 10° N
CZ-2C R/B 3.4 13:28:43 10° N 13:34:16 63° W 13:40:06 10° SSW
USA 308 2.3 13:33:48 11° W 13:36:03 52° SSW 13:38:52 10° ESE
Cosmos 1025 Rocket 4.4 13:33:41 10° SSW 13:37:16 24° W 13:40:05 14° NW
ALOS 2.6 13:36:58 10° N 13:41:30 50° W 13:46:07 10° SSW
Cosmos 2360 Rocket 2.2 13:37:48 10° SSW 13:43:34 89° NW 13:49:15 10° NNE
SJ 16-02 4.0 13:44:14 10° SW 13:45:08 10° SW 13:46:01 10° SSW
NOSS 3-1 (A) 4.0 13:39:47 10° SW 13:45:21 31° WNW 13:50:03 10° N
Cosmos 2016 Rocket 4.4 13:39:45 10° S 13:46:13 69° ESE 13:52:37 10° NNE
In-Cosmos 22 Rocket 4.4 13:41:58 10° SSW 13:47:50 64° W 13:53:32 10° N
Cosmos 1727 Rocket 4.1 13:42:51 11° NNW 13:48:53 69° WSW 13:55:13 10° S
Cosmos 1953 3.7 13:46:52 12° NW 13:49:51 26° WSW 13:53:18 10° S
Cosmos 2219 Rocket 2.9 13:44:28 10° SSW 13:50:05 58° SE 13:55:37 10° NE
Meteor 1-11 4.4 13:44:37 10° SSW 13:50:26 64° W 13:56:08 10° N
CZ-4 R/B 4.5 13:46:43 10° NNW 13:51:00 37° W 13:55:23 10° SSW
Thor Agena Rocket 3.9 13:48:35 10° N 13:53:31 46° W 13:58:34 10° SSW
Cosmos 2123 Rocket 4.4 13:48:46 10° N 13:54:58 68° E 14:01:13 10° SSE
Sich 1 Rocket 3.7 13:51:10 10° N 13:55:46 89° ENE 14:00:28 10° S
ADEOS II 3.6 13:53:01 11° NW 13:56:30 19° W 14:00:18 10° SW
USA 281 3.2 13:52:30 10° NNE 13:59:06 79° WNW 14:05:47 10° SSW
NOAA 11 4.4 13:54:25 10° NNE 13:59:58 84° ESE 14:05:35 10° SSW
Cosmos 304 Rocket 3.9 13:55:33 11° NNW 14:00:13 72° WSW 14:05:07 10° SSE
Cosmos 2322 Rocket 2.4 13:54:43 10° SW 14:00:15 54° WNW 14:05:42 10° N
USA 305 1.3 13:58:56 15° NW 14:00:28 50° NNE 14:02:22 10° ESE
Cosmos 332 Rocket 4.1 13:55:39 10° N 14:00:29 66° ENE 14:05:20 10° SSE
ATLAS 5 CENTAUR R/B 3.9 13:57:44 10° SW 14:03:45 38° SSE 14:08:42 10° E
SL-27 R/B 4.2 14:03:31 10° NNE 14:06:04 24° ENE 14:08:39 10° SE
USA 307 1.3 14:04:20 12° WNW 14:06:27 67° NNE 14:08:42 10° ESE
Meteor 1-4 Rocket 3.4 14:04:20 10° SW 14:07:07 26° W 14:09:52 10° NNW
Cosmos 2173 Rocket 4.1 14:01:29 10° SSW 14:07:32 58° W 14:13:31 10° N
COSMOS 2428 4.0 14:02:35 10° SSW 14:08:09 46° SE 14:13:38 10° NE
Cosmos 2333 Rocket 2.2 14:02:30 10° SSW 14:08:13 74° WNW 14:13:53 10° NNE
PAYLOAD A 3.8 14:03:30 10° N 14:08:14 67° WNW 14:13:00 10° SSW
Envisat 3.2 14:12:35 10° N 14:17:37 58° W 14:22:43 10° SSW
Geosat 4.4 14:12:51 10° N 14:17:39 43° WNW 14:22:30 10° SW
Okean 2 Rocket 3.3 14:13:43 10° NNW 14:18:10 60° WSW 14:22:38 10° S
Cosmos 2100 Rocket 4.4 14:12:27 10° SSW 14:18:23 47° W 14:24:16 10° NNW
Cosmos 1825 4.2 14:17:01 10° SW 14:18:45 13° W 14:20:29 10° WNW
Cosmos 1802 Rocket 4.2 14:12:27 10° SSW 14:18:51 64° W 14:25:06 10° N
Cosmos 921 Rocket 3.1 14:15:27 10° SSW 14:19:44 84° ESE 14:23:57 10° NNE
Cosmos 371 Rocket 4.1 14:16:11 10° NW 14:20:49 41° WSW 14:25:32 10° SSE
Lacrosse 5 rocket 2.8 14:20:10 10° W 14:22:02 13° NW 14:23:55 10° NNW
SL-16 R/B 3.2 14:17:30 10° SW 14:22:09 26° WNW 14:26:47 10° NNW
Cosmos 923 Rocket 4.1 14:18:15 10° SSW 14:23:28 60° WNW 14:28:37 10° N
CZ-2C R/B 4.0 14:19:16 10° SSE 14:24:28 40° E 14:29:41 10° NNE
ATLAS 3B R/B 4.1 14:22:12 10° W 14:24:55 13° WNW 14:27:37 10° NW
ATLAS CENTAUR R/B 3.4 14:23:13 10° W 14:25:10 13° WNW 14:27:04 10° NW
Cosmos 990 Rocket 4.4 14:20:48 10° NW 14:25:55 53° WSW 14:31:09 10° SSE
Cosmos 1898 Rocket 3.6 14:22:06 10° NNW 14:27:23 89° WSW 14:32:47 10° SSE
